Time,TemperatureF,DewpointF,PressureIn,WindDirection,WindDirectionDegrees,WindSpeedMPH,WindSpeedGustMPH,Humidity,HourlyPrecipIn,Conditions,Clouds,dailyrainin,SoftwareType,DateUTC
2013-01-16 00:02:00,32.0,24.0,30.26,NW,321,2.0,7.0,71,0.00,,,0.04,,2013-01-16 06:02:00,
2013-01-16 00:12:00,32.0,24.0,30.26,NW,321,2.0,7.0,71,0.00,,,0.04,,2013-01-16 06:12:00,
2013-01-16 00:22:00,32.0,23.0,30.27,NW,325,2.0,6.0,70,0.00,,,0.04,,2013-01-16 06:22:00,
2013-01-16 00:32:00,31.0,23.0,30.27,NW,315,2.0,6.0,71,0.00,,,0.04,,2013-01-16 06:32:00,
2013-01-16 00:43:00,31.0,23.0,30.27,NW,315,2.0,6.0,71,0.00,,,0.04,,2013-01-16 06:43:00,
2013-01-16 00:52:00,31.0,23.0,30.27,NW,310,2.0,5.0,71,0.00,,,0.04,,2013-01-16 06:52:00,
2013-01-16 01:02:00,31.0,23.0,30.26,NNW,333,3.0,6.0,71,0.00,,,0.04,,2013-01-16 07:02:00,
2013-01-16 01:12:00,31.0,23.0,30.26,NNW,333,3.0,6.0,71,0.00,,,0.04,,2013-01-16 07:12:00,
2013-01-16 01:22:00,31.0,23.0,30.27,NNW,327,3.0,6.0,71,0.00,,,0.04,,2013-01-16 07:22:00,
2013-01-16 01:32:00,31.0,23.0,30.27,NW,322,3.0,5.0,71,0.00,,,0.04,,2013-01-16 07:32:00,
2013-01-16 01:42:00,31.0,23.0,30.27,NW,322,3.0,5.0,71,0.00,,,0.04,,2013-01-16 07:42:00,
2013-01-16 01:52:00,31.0,23.0,30.27,WNW,300,2.0,4.0,71,0.00,,,0.04,,2013-01-16 07:52:00,
2013-01-16 02:02:00,31.0,23.0,30.27,WNW,300,2.0,4.0,71,0.00,,,0.04,,2013-01-16 08:02:00,
2013-01-16 02:12:00,31.0,23.0,30.27,WNW,300,2.0,4.0,71,0.00,,,0.04,,2013-01-16 08:12:00,
2013-01-16 02:22:00,30.0,22.0,30.27,NW,319,0.0,1.0,73,0.00,,,0.04,,2013-01-16 08:22:00,
2013-01-16 02:32:00,30.0,23.0,30.27,East,83,0.0,0.0,76,0.00,,,0.04,,2013-01-16 08:32:00,
2013-01-16 02:42:00,30.0,23.0,30.27,East,83,0.0,0.0,76,0.00,,,0.04,,2013-01-16 08:42:00,
2013-01-16 02:52:00,29.0,23.0,30.29,East,83,0.0,0.0,77,0.00,,,0.04,,2013-01-16 08:52:00,
2013-01-16 03:02:00,29.0,23.0,30.29,WNW,283,0.0,0.0,78,0.00,,,0.04,,2013-01-16 09:02:00,
2013-01-16 03:12:00,29.0,23.0,30.29,WNW,283,0.0,0.0,78,0.00,,,0.04,,2013-01-16 09:12:00,
2013-01-16 03:22:00,29.0,23.0,30.29,WNW,297,0.0,3.0,79,0.00,,,0.04,,2013-01-16 09:22:00,
2013-01-16 03:32:00,29.0,23.0,30.29,WNW,298,2.0,5.0,78,0.00,,,0.04,,2013-01-16 09:32:00,
2013-01-16 03:42:00,29.0,23.0,30.29,WNW,298,2.0,5.0,78,0.00,,,0.04,,2013-01-16 09:42:00,
2013-01-16 03:52:00,29.0,23.0,30.29,NW,316,2.0,4.0,78,0.00,,,0.04,,2013-01-16 09:52:00,
2013-01-16 04:02:00,28.0,22.0,30.29,WNW,297,2.0,6.0,79,0.00,,,0.04,,2013-01-16 10:02:00,
2013-01-16 04:12:00,28.0,22.0,30.29,WNW,297,2.0,6.0,79,0.00,,,0.04,,2013-01-16 10:12:00,
2013-01-16 04:22:00,28.0,22.0,30.30,WNW,293,2.0,6.0,79,0.00,,,0.04,,2013-01-16 10:22:00,
2013-01-16 04:32:00,27.0,21.0,30.29,NW,322,3.0,5.0,79,0.00,,,0.04,,2013-01-16 10:32:00,
2013-01-16 04:42:00,27.0,21.0,30.29,NW,322,3.0,5.0,79,0.00,,,0.04,,2013-01-16 10:42:00,
2013-01-16 04:52:00,27.0,21.0,30.29,WNW,302,1.0,3.0,79,0.00,,,0.04,,2013-01-16 10:52:00,
2013-01-16 05:02:00,27.0,21.0,30.29,WNW,298,2.0,5.0,79,0.00,,,0.04,,2013-01-16 11:02:00,
2013-01-16 05:12:00,27.0,21.0,30.29,WNW,298,2.0,5.0,79,0.00,,,0.04,,2013-01-16 11:12:00,
2013-01-16 05:22:00,27.0,21.0,30.29,NW,304,2.0,5.0,77,0.00,,,0.04,,2013-01-16 11:22:00,
2013-01-16 05:32:00,27.0,20.0,30.30,WNW,295,1.0,5.0,76,0.00,,,0.04,,2013-01-16 11:32:00,
2013-01-16 05:42:00,27.0,20.0,30.30,WNW,295,1.0,5.0,76,0.00,,,0.04,,2013-01-16 11:42:00,
2013-01-16 05:52:00,27.0,20.0,30.30,West,269,3.0,4.0,76,0.00,,,0.04,,2013-01-16 11:52:00,
2013-01-16 06:03:00,27.0,20.0,30.29,WNW,283,2.0,7.0,74,0.00,,,0.04,,2013-01-16 12:03:00,
2013-01-16 06:12:00,27.0,20.0,30.29,WNW,283,2.0,7.0,74,0.00,,,0.04,,2013-01-16 12:12:00,
2013-01-16 06:22:00,27.0,20.0,30.30,NW,313,3.0,5.0,74,0.00,,,0.04,,2013-01-16 12:22:00,
2013-01-16 06:33:00,27.0,20.0,30.30,WNW,291,0.0,0.0,75,0.00,,,0.04,,2013-01-16 12:33:00,
2013-01-16 06:43:00,27.0,20.0,30.30,WNW,291,0.0,0.0,75,0.00,,,0.04,,2013-01-16 12:43:00,
2013-01-16 06:53:00,26.0,19.0,30.31,WNW,290,0.0,0.0,75,0.00,,,0.04,,2013-01-16 12:53:00,
2013-01-16 07:03:00,26.0,19.0,30.31,WNW,292,0.0,0.0,76,0.00,,,0.04,,2013-01-16 13:03:00,
2013-01-16 07:12:00,26.0,19.0,30.31,WNW,292,0.0,0.0,76,0.00,,,0.04,,2013-01-16 13:12:00,
2013-01-16 07:22:00,26.0,19.0,30.32,WNW,291,0.0,0.0,76,0.00,,,0.04,,2013-01-16 13:22:00,
2013-01-16 07:33:00,26.0,20.0,30.31,WNW,288,0.0,0.0,77,0.00,,,0.04,,2013-01-16 13:33:00,
2013-01-16 07:43:00,26.0,20.0,30.31,WNW,288,0.0,0.0,77,0.00,,,0.04,,2013-01-16 13:43:00,
2013-01-16 07:52:00,26.0,20.0,30.32,WNW,295,0.0,0.0,77,0.00,,,0.04,,2013-01-16 13:52:00,
2013-01-16 08:03:00,26.0,20.0,30.32,West,277,0.0,0.0,77,0.00,,,0.04,,2013-01-16 14:03:00,
2013-01-16 08:12:00,26.0,20.0,30.32,West,277,0.0,0.0,77,0.00,,,0.04,,2013-01-16 14:12:00,
2013-01-16 08:22:00,26.0,20.0,30.34,West,278,1.0,3.0,77,0.00,,,0.04,,2013-01-16 14:22:00,
2013-01-16 08:33:00,27.0,20.0,30.35,West,274,0.0,0.0,76,0.00,,,0.04,,2013-01-16 14:33:00,
2013-01-16 08:42:00,27.0,20.0,30.35,West,274,0.0,0.0,76,0.00,,,0.04,,2013-01-16 14:42:00,
2013-01-16 08:53:00,28.0,20.0,30.35,West,278,0.0,0.0,73,0.00,,,0.04,,2013-01-16 14:53:00,
2013-01-16 09:03:00,29.0,20.0,30.35,WSW,241,2.0,6.0,69,0.00,,,0.04,,2013-01-16 15:03:00,
2013-01-16 09:12:00,29.0,20.0,30.35,WSW,241,2.0,6.0,69,0.00,,,0.04,,2013-01-16 15:12:00,
2013-01-16 09:22:00,29.0,20.0,30.36,West,276,1.0,4.0,68,0.00,,,0.04,,2013-01-16 15:22:00,
2013-01-16 09:33:00,30.0,20.0,30.35,West,277,0.0,3.0,66,0.00,,,0.04,,2013-01-16 15:33:00,
2013-01-16 09:43:00,30.0,20.0,30.35,West,277,0.0,3.0,66,0.00,,,0.04,,2013-01-16 15:43:00,
2013-01-16 09:52:00,31.0,21.0,30.35,SW,236,0.0,3.0,65,0.00,,,0.04,,2013-01-16 15:52:00,
2013-01-16 10:03:00,33.0,21.0,30.35,WSW,238,0.0,0.0,62,0.00,,,0.04,,2013-01-16 16:03:00,
2013-01-16 10:12:00,33.0,21.0,30.35,WSW,238,0.0,0.0,62,0.00,,,0.04,,2013-01-16 16:12:00,
2013-01-16 10:22:00,34.0,21.0,30.35,NNW,335,0.0,0.0,58,0.00,,,0.04,,2013-01-16 16:22:00,
2013-01-16 10:33:00,36.0,21.0,30.34,West,264,0.0,0.0,53,0.00,,,0.04,,2013-01-16 16:33:00,
2013-01-16 10:42:00,36.0,21.0,30.34,West,264,0.0,0.0,53,0.00,,,0.04,,2013-01-16 16:42:00,
2013-01-16 10:52:00,36.0,20.0,30.32,West,276,1.0,5.0,51,0.00,,,0.04,,2013-01-16 16:52:00,
2013-01-16 11:03:00,38.0,21.0,30.32,NNW,329,2.0,5.0,50,0.00,,,0.04,,2013-01-16 17:03:00,
2013-01-16 11:12:00,38.0,21.0,30.32,NNW,329,2.0,5.0,50,0.00,,,0.04,,2013-01-16 17:12:00,
2013-01-16 11:22:00,38.0,20.0,30.32,WNW,282,2.0,6.0,48,0.00,,,0.04,,2013-01-16 17:22:00,
2013-01-16 11:33:00,39.0,21.0,30.31,NNW,328,5.0,9.0,48,0.00,,,0.04,,2013-01-16 17:33:00,
2013-01-16 11:43:00,39.0,21.0,30.31,NNW,328,5.0,9.0,48,0.00,,,0.04,,2013-01-16 17:43:00,
2013-01-16 11:53:00,40.0,21.0,30.30,NW,304,2.0,9.0,46,0.00,,,0.04,,2013-01-16 17:53:00,
2013-01-16 12:03:00,41.0,21.0,30.29,West,259,5.0,9.0,44,0.00,,,0.04,,2013-01-16 18:03:00,
2013-01-16 12:12:00,41.0,21.0,30.29,West,259,5.0,9.0,44,0.00,,,0.04,,2013-01-16 18:12:00,
2013-01-16 12:23:00,41.0,22.0,30.28,WSW,246,1.0,8.0,46,0.00,,,0.04,,2013-01-16 18:23:00,
2013-01-16 12:33:00,42.0,22.0,30.27,WSW,253,3.0,7.0,44,0.00,,,0.04,,2013-01-16 18:33:00,
2013-01-16 12:42:00,42.0,22.0,30.27,WSW,253,3.0,7.0,44,0.00,,,0.04,,2013-01-16 18:42:00,
2013-01-16 12:53:00,42.0,22.0,30.27,WNW,288,5.0,9.0,44,0.00,,,0.04,,2013-01-16 18:53:00,
2013-01-16 13:03:00,43.0,23.0,30.26,West,278,2.0,7.0,45,0.00,,,0.04,,2013-01-16 19:03:00,
2013-01-16 13:12:00,43.0,23.0,30.26,West,278,2.0,7.0,45,0.00,,,0.04,,2013-01-16 19:12:00,
2013-01-16 13:23:00,43.0,23.0,30.25,WNW,300,0.0,9.0,45,0.00,,,0.04,,2013-01-16 19:23:00,
2013-01-16 13:33:00,44.0,23.0,30.25,WNW,294,5.0,9.0,44,0.00,,,0.04,,2013-01-16 19:33:00,
2013-01-16 13:43:00,44.0,23.0,30.25,WNW,294,5.0,9.0,44,0.00,,,0.04,,2013-01-16 19:43:00,
2013-01-16 13:52:00,44.0,23.0,30.24,WSW,257,4.0,9.0,44,0.00,,,0.04,,2013-01-16 19:52:00,
2013-01-16 14:03:00,45.0,24.0,30.23,West,267,2.0,11.0,43,0.00,,,0.04,,2013-01-16 20:03:00,
2013-01-16 14:12:00,45.0,24.0,30.23,West,267,2.0,11.0,43,0.00,,,0.04,,2013-01-16 20:12:00,
2013-01-16 14:23:00,46.0,24.0,30.22,NW,316,1.0,9.0,42,0.00,,,0.04,,2013-01-16 20:23:00,
2013-01-16 14:33:00,46.0,24.0,30.22,WSW,240,5.0,10.0,42,0.00,,,0.02,,2013-01-16 20:33:00,
2013-01-16 14:42:00,46.0,24.0,30.22,WSW,240,5.0,10.0,42,0.00,,,0.02,,2013-01-16 20:42:00,
2013-01-16 14:53:00,46.0,24.0,30.21,WSW,246,5.0,9.0,41,0.00,,,0.02,,2013-01-16 20:53:00,
2013-01-16 15:03:00,47.0,23.0,30.20,NW,305,3.0,8.0,38,0.00,,,0.02,,2013-01-16 21:03:00,
2013-01-16 15:12:00,47.0,23.0,30.20,NW,305,3.0,8.0,38,0.00,,,0.02,,2013-01-16 21:12:00,
2013-01-16 15:22:00,47.0,23.0,30.21,West,263,5.0,9.0,39,0.00,,,0.02,,2013-01-16 21:22:00,
2013-01-16 15:33:00,47.0,23.0,30.21,West,263,5.0,9.0,39,0.00,,,0.02,,2013-01-16 21:33:00,
2013-01-16 15:43:00,47.0,23.0,30.21,West,263,5.0,9.0,39,0.00,,,0.02,,2013-01-16 21:43:00,
2013-01-16 15:52:00,48.0,24.0,30.21,WSW,257,5.0,10.0,38,0.00,,,0.01,,2013-01-16 21:52:00,
2013-01-16 16:03:00,48.0,23.0,30.21,West,274,5.0,10.0,37,0.00,,,0.01,,2013-01-16 22:03:00,
2013-01-16 16:12:00,48.0,23.0,30.21,West,274,5.0,10.0,37,0.00,,,0.01,,2013-01-16 22:12:00,
2013-01-16 16:22:00,48.0,23.0,30.21,WNW,295,5.0,10.0,37,0.00,,,0.01,,2013-01-16 22:22:00,
2013-01-16 16:33:00,48.0,23.0,30.21,SW,232,6.0,11.0,37,0.00,,,0.00,,2013-01-16 22:33:00,
2013-01-16 16:43:00,48.0,23.0,30.21,SW,232,6.0,11.0,37,0.00,,,0.00,,2013-01-16 22:43:00,
2013-01-16 16:52:00,49.0,23.0,30.21,WSW,256,7.0,14.0,36,0.00,,,0.00,,2013-01-16 22:52:00,
2013-01-16 17:03:00,49.0,21.0,30.21,WSW,240,3.0,8.0,33,0.00,,,0.00,,2013-01-16 23:03:00,
2013-01-16 17:12:00,49.0,20.0,30.21,WNW,302,5.0,10.0,32,0.00,,,0.00,,2013-01-16 23:12:00,
2013-01-16 17:22:00,49.0,20.0,30.21,WNW,302,5.0,10.0,32,0.00,,,0.00,,2013-01-16 23:22:00,
2013-01-16 17:32:00,49.0,20.0,30.21,NW,314,4.0,7.0,32,0.00,,,0.00,,2013-01-16 23:32:00,
2013-01-16 17:42:00,49.0,20.0,30.21,NW,314,4.0,7.0,32,0.00,,,0.00,,2013-01-16 23:42:00,
2013-01-16 17:52:00,49.0,21.0,30.21,West,266,1.0,4.0,33,0.00,,,0.00,,2013-01-16 23:52:00,
2013-01-16 18:02:00,48.0,20.0,30.21,West,281,0.0,4.0,33,0.00,,,0.00,,2013-01-17 00:02:00,
2013-01-16 18:12:00,48.0,20.0,30.21,West,281,0.0,4.0,33,0.00,,,0.00,,2013-01-17 00:12:00,
2013-01-16 18:22:00,47.0,20.0,30.22,West,274,0.0,2.0,34,0.00,,,0.00,,2013-01-17 00:22:00,
2013-01-16 18:32:00,46.0,21.0,30.22,West,274,0.0,1.0,36,0.00,,,0.00,,2013-01-17 00:32:00,
2013-01-16 18:42:00,46.0,21.0,30.22,West,274,0.0,1.0,36,0.00,,,0.00,,2013-01-17 00:42:00,
2013-01-16 18:52:00,44.0,20.0,30.22,West,274,0.0,1.0,38,0.00,,,0.00,,2013-01-17 00:52:00,
2013-01-16 19:02:00,44.0,21.0,30.22,West,274,0.0,0.0,39,0.00,,,0.00,,2013-01-17 01:02:00,
2013-01-16 19:12:00,44.0,21.0,30.22,West,274,0.0,0.0,39,0.00,,,0.00,,2013-01-17 01:12:00,
2013-01-16 19:22:00,44.0,22.0,30.23,West,274,0.0,0.0,41,0.00,,,0.00,,2013-01-17 01:22:00,
2013-01-16 19:33:00,43.0,22.0,30.24,WSW,257,0.0,0.0,43,0.00,,,0.00,,2013-01-17 01:33:00,
2013-01-16 19:42:00,43.0,22.0,30.24,WSW,257,0.0,0.0,43,0.00,,,0.00,,2013-01-17 01:42:00,
2013-01-16 19:52:00,42.0,23.0,30.24,ESE,115,0.0,0.0,46,0.00,,,0.00,,2013-01-17 01:52:00,
2013-01-16 20:02:00,42.0,24.0,30.24,ESE,115,0.0,0.0,49,0.00,,,0.00,,2013-01-17 02:02:00,
2013-01-16 20:12:00,42.0,24.0,30.24,ESE,115,0.0,0.0,49,0.00,,,0.00,,2013-01-17 02:12:00,
2013-01-16 20:22:00,41.0,25.0,30.24,ESE,115,0.0,0.0,52,0.00,,,0.00,,2013-01-17 02:22:00,
2013-01-16 20:32:00,40.0,25.0,30.25,ESE,115,0.0,0.0,54,0.00,,,0.00,,2013-01-17 02:32:00,
2013-01-16 20:42:00,40.0,25.0,30.25,ESE,115,0.0,0.0,54,0.00,,,0.00,,2013-01-17 02:42:00,
2013-01-16 20:52:00,40.0,25.0,30.25,ESE,115,0.0,0.0,54,0.00,,,0.00,,2013-01-17 02:52:00,
2013-01-16 21:03:00,40.0,25.0,30.26,ESE,116,0.0,0.0,55,0.00,,,0.00,,2013-01-17 03:03:00,
2013-01-16 21:12:00,40.0,25.0,30.26,ESE,116,0.0,0.0,55,0.00,,,0.00,,2013-01-17 03:12:00,
2013-01-16 21:22:00,39.0,25.0,30.26,ESE,115,0.0,0.0,58,0.00,,,0.00,,2013-01-17 03:22:00,
2013-01-16 21:32:00,39.0,26.0,30.26,ESE,115,0.0,0.0,59,0.00,,,0.00,,2013-01-17 03:32:00,
2013-01-16 21:42:00,39.0,26.0,30.26,ESE,115,0.0,0.0,59,0.00,,,0.00,,2013-01-17 03:42:00,
2013-01-16 21:52:00,39.0,26.0,30.26,ESE,115,0.0,0.0,60,0.00,,,0.00,,2013-01-17 03:52:00,
2013-01-16 22:02:00,39.0,25.0,30.26,ESE,116,0.0,0.0,58,0.00,,,0.00,,2013-01-17 04:02:00,
2013-01-16 22:12:00,39.0,26.0,30.26,ESE,115,0.0,0.0,60,0.00,,,0.00,,2013-01-17 04:12:00,
2013-01-16 22:22:00,39.0,26.0,30.26,ESE,115,0.0,0.0,60,0.00,,,0.00,,2013-01-17 04:22:00,
2013-01-16 22:32:00,39.0,26.0,30.26,ESE,115,0.0,0.0,59,0.00,,,0.00,,2013-01-17 04:32:00,
2013-01-16 22:42:00,39.0,26.0,30.26,ESE,115,0.0,0.0,59,0.00,,,0.00,,2013-01-17 04:42:00,
2013-01-16 22:52:00,40.0,27.0,30.26,ESE,115,0.0,0.0,59,0.00,,,0.00,,2013-01-17 04:52:00,
2013-01-16 23:04:00,40.0,27.0,30.26,ESE,118,0.0,0.0,59,0.00,,,0.00,,2013-01-17 05:04:00,
2013-01-16 23:12:00,40.0,27.0,30.26,ESE,118,0.0,0.0,59,0.00,,,0.00,,2013-01-17 05:12:00,
2013-01-16 23:22:00,40.0,26.0,30.26,SSE,158,0.0,1.0,57,0.00,,,0.00,,2013-01-17 05:22:00,
2013-01-16 23:33:00,40.0,26.0,30.26,SSE,158,0.0,1.0,57,0.00,,,0.00,,2013-01-17 05:33:00,
2013-01-16 23:42:00,40.0,26.0,30.26,SSE,158,0.0,1.0,57,0.00,,,0.00,,2013-01-17 05:42:00,
2013-01-16 23:52:00,40.0,28.0,30.27,SW,229,0.0,1.0,61,0.00,,,0.00,,2013-01-17 05:52:00,